Vertical_Velocity
-4 -1 -1 1 -5 -5 -4 -2 -0 -2 -4 -1 -2 -2 1 -4 -2 0 -2 -2 -5 -9 1 4 11 0 8 1 9 -4 -1 -5 1 -1 -14 -6 2 7 6 10 -1 -9 -2 -12 -29
-2 -2 0 -1 -0 -1 2 -3 -1 -1 -1 -1 -1 -3 -3 -2 0 3 3 -2 1 11 -1 -5 -14 18 4 2 16 10 -0 -12 12 3 -4 -8 13 -5 7 9 4 -1 -5 -2 -8
0 -4 -2 1 -2 -0 -1 2 -1 -2 -2 -0 -2 -1 -1 -2 -2 1 -4 1 7 14 6 4 47 6 8 8 -3 22 1 -14 3 4 3 -2 8 -7 4 3 6 -5 -10 -5 0
0 -0 -2 -1 3 -3 -2 -2 -1 -1 -1 -1 1 -1 -3 -1 -4 -1 -3 -3 -2 4 4 -6 4 -3 0 -14 -18 15 12 -16 6 2 4 -3 6 2 -0 -1 4 4 7 -2 2
-2 0 -1 -1 -1 -1 1 -1 -0 -2 2 -1 1 -4 -4 -1 -0 -4 1 1 1 -11 5 3 -5 30 -1 -6 8 12 2 -10 -0 9 12 4 2 -2 -5 -5 5 3 5 1 4
4 1 -1 -2 -3 1 -0 0 -4 -2 -0 -1 1 -2 -1 -1 -4 -1 2 0 3 -5 -1 6 -1 -5 -1 0 -16 36 5 -8 19 -3 12 3 6 1 -1 -0 -3 -0 2 10 -4
-0 -1 1 -0 -4 -0 -1 0 -2 -2 -1 -0 -2 -1 -1 1 1 -3 -2 -4 1 1 -5 15 23 2 1 4 10 36 6 8 -16 -7 9 -3 9 3 6 -3 0 -1 3 2 -4
3 1 1 1 -5 4 -3 -0 -1 -1 1 -0 -3 -1 -2 0 1 -0 0 -1 0 -0 -1 -6 -6 -3 4 4 10 24 11 1 -0 19 10 3 4 4 1 -4 -5 -4 -0 -0 3
3 0 -3 -2 2 1 1 -0 -2 -0 0 -1 -3 -2 0 -1 -1 -0 1 -1 3 -5 -8 7 -4 -7 3 7 5 -0 2 -4 1 2 10 5 9 4 3 -1 -2 -3 -3 2 1
0 4 1 -1 2 -2 0 0 -2 -0 0 -2 -1 -0 2 -2 -4 -4 1 1 2 1 5 -2 6 -8 -2 5 -10 -11 6 -1 -9 -14 14 -6 9 2 6 3 -1 -3 -1 -0 1
1 -1 3 -2 1 -4 1 -1 1 -1 -1 -1 3 1 -2 -3 -6 -4 5 0 0 0 -1 -1 -4 -12 -8 3 -1 7 3 -0 3 -15 -23 -13 11 -15 14 2 -4 -3 -1 -2 -3
4 -5 5 1 -2 -3 2 -1 2 -1 -2 0 -3 -3 -1 -0 3 -3 3 1 1 6 1 1 -1 0 -14 43 7 13 14 10 5 2 -2 -1 -10 -3 -4 -1 -5 -0 -9 -3 2
11 -10 4 3 -2 -1 0 1 -0 -0 -0 -2 -1 -2 -3 -0 0 -3 -2 -2 -3 -3 -0 -1 -6 -3 9 8 5 -15 -7 -10 -14 -3 7 -2 -5 -4 -1 -2 -14 -4 0 -4 -1
3 1 0 1 -3 0 -1 2 -2 -2 -2 -0 -2 -1 -3 -1 0 -1 1 -3 0 2 -2 0 1 2 -3 1 4 -3 -1 -1 -2 4 -8 4 -3 -6 -2 -11 -4 4 2 0 -3
4 9 -4 -0 0 -1 -1 0 -1 -3 -6 -1 -2 -1 -5 -3 2 2 2 1 1 -0 1 7 -1 -10 -1 3 3 1 8 11 8 -1 1 -6 1 3 1 -9 -11 -5 -1 3 4
2 2 -5 -2 2 2 -1 1 -3 -0 -11 -3 -4 1 2 4 6 5 9 0 9 10 4 -8 -3 3 -1 4 5 -0 -3 3 8 -5 -3 -8 2 -1 -0 -1 2 3 6 5 2
3 0 -4 -1 -1 2 1 -1 -1 -4 -0 -4 -5 2 2 -3 4 -2 3 -3 1 -3 1 6 -4 8 7 3 1 -4 1 -1 -2 -1 -2 3 3 2 2 1 3 1 -3 -7 -6
1 -0 -2 -0 -1 2 1 -3 -1 -3 0 -2 -10 1 1 -3 4 3 7 2 -8 -2 -2 -2 8 13 4 -6 -4 11 -1 -10 -2 -2 0 -0 -4 0 3 -2 -1 -3 -3 -4 -0
5 0 0 -1 -0 0 2 -2 -3 2 -3 -3 -5 -1 3 1 -3 -1 -1 -3 4 -3 -2 -3 2 -1 2 1 3 3 -2 -2 -13 2 -4 -0 5 6 9 4 1 2 2 1 -1
5 -1 -0 -0 3 -2 3 -3 -4 2 0 -5 -1 2 1 -1 1 0 1 -1 -0 0 -1 2 -6 1 0 5 7 0 4 1 3 -3 0 0 1 4 -7 -3 1 3 3 4 5
3 2 -0 -0 4 0 -2 -5 -3 2 -2 -7 -2 -2 0 -4 -1 -5 -2 -1 -0 5 3 -0 -4 1 2 2 -1 -2 -2 -1 -2 1 -3 -1 -2 -8 4 4 1 1 2 5 6
-10 4 -1 2 -1 2 -3 -10 1 1 -3 -4 3 1 -3 6 -2 -2 -2 -0 1 1 1 -3 -4 -2 -2 -0 0 -2 -3 -4 -3 1 -2 1 -3 3 10 13 10 6 1 -2 -3
-10 5 -0 2 -5 -1 -0 -3 1 -2 -2 -3 -0 5 2 0 -5 -1 -1 -0 -4 -7 -5 -2 -0 -4 -4 -1 -1 -1 -2 -1 -1 -6 -3 -1 -0 7 2 0 1 -1 -4 -6 -5
-6 -0 1 1 2 0 -5 -3 1 0 -2 -1 0 -1 -3 1 4 -4 -3 -1 -1 3 3 -2 -2 -2 -10 -1 -0 -3 -1 -0 2 -0 -3 0 2 1 1 4 3 0 -1 1 1
-1 -2 2 -13 -3 -0 0 -0 -1 -5 -2 1 -0 2 -3 -3 -1 -1 1 -1 1 2 1 1 -2 -1 0 -0 1 0 2 -3 -7 3 -4 -3 6 3 3 -1 -1 0 1 -0 -2
-1 1 -1 0 5 2 1 -2 -0 -4 -6 0 -3 -1 -0 -0 3 -4 -5 3 -0 -1 0 -1 -2 0 -0 0 -2 0 3 2 5 2 5 4 5 -7 -6 -2 0 -0 -1 -3 -3
0 4 0 2 1 -0 -2 -1 1 0 -3 -8 1 -2 1 1 4 2 -2 -3 -2 -2 -1 -0 0 2 2 2 -0 -3 1 1 2 2 1 1 6 -1 -1 0 1 1 0 -2 -0
Height
3102 3097 3091 3085 3079 3073 3069 3067 3065 3062 3061 3059 3056 3055 3053 3051 3050 3049 3046 3046 3043 3041 3041 3045 3053 3060 3065 3069 3076 3083 3087 3086 3090 3099 3105 3111 3117 3119 3123 3127 3131 3136 3136 3137 3138
3099 3094 3087 3081 3076 3070 3066 3063 3061 3058 3056 3055 3052 3051 3049 3048 3047 3045 3044 3041 3038 3034 3033 3041 3048 3054 3057 3062 3069 3074 3078 3084 3090 3096 3102 3108 3114 3117 3121 3125 3127 3132 3137 3141 3142
3096 3090 3084 3078 3073 3068 3063 3060 3057 3054 3053 3051 3049 3047 3045 3044 3044 3042 3041 3039 3035 3033 3032 3036 3034 3048 3052 3058 3064 3065 3071 3081 3090 3094 3100 3105 3111 3115 3118 3123 3125 3128 3133 3140 3143
3093 3087 3081 3075 3069 3064 3060 3056 3053 3050 3049 3047 3045 3043 3042 3041 3042 3038 3037 3036 3034 3031 3033 3036 3040 3043 3046 3052 3061 3061 3069 3075 3086 3091 3097 3103 3108 3111 3114 3120 3124 3127 3131 3135 3140
3090 3084 3078 3071 3065 3060 3056 3052 3050 3047 3046 3043 3041 3040 3039 3038 3037 3034 3033 3033 3034 3031 3029 3034 3038 3037 3046 3050 3059 3061 3065 3075 3082 3090 3095 3099 3105 3108 3111 3118 3123 3126 3128 3130 3136
3086 3080 3074 3067 3061 3056 3052 3049 3046 3044 3043 3040 3039 3037 3036 3036 3032 3030 3029 3030 3031 3029 3028 3031 3038 3041 3046 3050 3053 3057 3066 3074 3075 3086 3092 3095 3101 3105 3109 3114 3119 3123 3127 3128 3132
3083 3077 3070 3063 3057 3053 3049 3046 3043 3041 3040 3038 3036 3035 3033 3033 3029 3028 3027 3026 3027 3028 3027 3028 3032 3038 3044 3048 3048 3057 3066 3070 3079 3085 3088 3091 3098 3101 3105 3110 3115 3120 3124 3125 3129
3080 3074 3066 3059 3053 3050 3046 3043 3040 3038 3037 3035 3034 3032 3031 3030 3028 3026 3025 3024 3025 3026 3028 3029 3033 3039 3045 3049 3050 3054 3064 3067 3072 3076 3078 3088 3095 3098 3102 3107 3111 3116 3120 3123 3127
3075 3070 3062 3056 3050 3047 3044 3040 3037 3036 3035 3034 3032 3030 3029 3028 3026 3023 3022 3021 3024 3026 3026 3029 3033 3039 3044 3049 3053 3058 3056 3066 3069 3076 3075 3083 3092 3096 3100 3104 3109 3114 3118 3121 3125
3070 3066 3059 3052 3047 3044 3042 3037 3035 3035 3034 3032 3031 3032 3028 3026 3022 3020 3019 3019 3022 3025 3025 3027 3033 3039 3043 3047 3048 3052 3057 3066 3073 3078 3078 3083 3081 3091 3099 3103 3108 3112 3115 3118 3121
3065 3061 3056 3050 3044 3042 3040 3036 3038 3036 3033 3032 3031 3028 3026 3024 3020 3019 3018 3019 3021 3024 3026 3029 3035 3038 3044 3046 3050 3055 3061 3066 3072 3074 3081 3087 3085 3089 3098 3101 3104 3109 3112 3115 3118
3061 3057 3052 3047 3042 3040 3038 3034 3035 3036 3033 3031 3029 3027 3025 3022 3020 3018 3018 3021 3022 3024 3027 3031 3034 3038 3044 3044 3052 3056 3061 3067 3071 3076 3082 3084 3084 3092 3095 3098 3102 3107 3109 3111 3115
3055 3053 3049 3043 3040 3038 3035 3033 3033 3034 3033 3032 3029 3028 3025 3023 3020 3020 3021 3022 3022 3025 3026 3030 3035 3038 3041 3044 3051 3058 3063 3066 3073 3077 3084 3085 3087 3087 3091 3092 3098 3102 3105 3107 3109
3051 3050 3046 3040 3039 3036 3033 3032 3032 3033 3033 3034 3031 3028 3026 3024 3023 3022 3021 3023 3023 3026 3028 3029 3035 3039 3039 3047 3054 3061 3066 3068 3070 3074 3078 3081 3082 3083 3086 3089 3093 3096 3099 3102 3105
3047 3044 3043 3036 3036 3034 3033 3031 3032 3033 3036 3035 3031 3029 3025 3025 3024 3022 3021 3022 3023 3026 3030 3033 3035 3040 3045 3050 3055 3060 3065 3068 3070 3073 3075 3079 3086 3082 3081 3084 3088 3092 3095 3099 3102
3041 3039 3039 3034 3033 3033 3030 3030 3033 3035 3034 3033 3032 3030 3028 3024 3023 3024 3023 3025 3026 3027 3028 3032 3036 3043 3047 3052 3058 3061 3063 3068 3073 3074 3078 3081 3086 3081 3083 3086 3088 3089 3092 3095 3099
3033 3034 3033 3030 3031 3031 3028 3030 3034 3031 3034 3035 3033 3031 3030 3028 3027 3029 3029 3029 3029 3031 3033 3036 3040 3041 3046 3054 3058 3060 3064 3073 3077 3077 3078 3081 3087 3084 3084 3086 3087 3087 3089 3092 3095
3027 3030 3027 3027 3028 3028 3026 3030 3030 3030 3029 3032 3033 3032 3031 3031 3031 3033 3033 3033 3033 3033 3035 3038 3042 3040 3048 3053 3055 3062 3067 3070 3073 3077 3078 3083 3084 3085 3085 3086 3086 3086 3089 3091 3093
3019 3025 3021 3023 3025 3026 3026 3028 3028 3028 3030 3032 3034 3033 3032 3033 3034 3035 3035 3035 3036 3036 3037 3040 3045 3045 3051 3053 3060 3064 3066 3068 3072 3072 3073 3081 3083 3084 3082 3083 3085 3087 3088 3090 3091
3014 3018 3018 3019 3022 3023 3025 3025 3026 3028 3030 3032 3033 3034 3034 3035 3036 3037 3037 3039 3039 3039 3040 3043 3047 3051 3054 3058 3061 3064 3067 3069 3068 3076 3077 3077 3077 3076 3078 3082 3085 3086 3087 3087 3088
3011 3013 3014 3016 3020 3021 3022 3024 3025 3027 3030 3031 3032 3034 3035 3037 3037 3038 3039 3041 3042 3043 3043 3045 3048 3056 3058 3060 3062 3065 3066 3068 3070 3072 3072 3076 3075 3075 3079 3083 3085 3085 3085 3085 3085
3004 3008 3011 3014 3018 3019 3020 3022 3024 3026 3028 3031 3033 3034 3036 3037 3038 3039 3040 3041 3043 3045 3046 3047 3050 3054 3059 3060 3063 3065 3068 3069 3071 3075 3075 3076 3078 3076 3082 3084 3083 3083 3083 3084 3086
3002 3005 3007 3011 3013 3016 3019 3022 3024 3025 3028 3031 3033 3034 3036 3037 3039 3040 3041 3042 3045 3046 3048 3049 3053 3058 3063 3065 3063 3064 3067 3070 3072 3074 3076 3078 3082 3079 3080 3081 3083 3083 3083 3084 3085
2998 3001 3004 3007 3010 3014 3017 3021 3023 3026 3027 3030 3032 3034 3035 3037 3037 3039 3042 3044 3046 3049 3050 3052 3053 3056 3058 3059 3061 3062 3065 3068 3071 3074 3076 3077 3076 3077 3080 3082 3082 3082 3082 3083 3081
2993 2996 2998 3000 3005 3010 3016 3020 3022 3024 3027 3030 3033 3036 3037 3037 3038 3040 3043 3045 3048 3050 3051 3053 3055 3057 3058 3059 3060 3061 3064 3066 3068 3071 3074 3076 3077 3077 3079 3079 3080 3079 3078 3077 3076
2989 2993 2995 2998 3004 3010 3015 3018 3021 3023 3026 3029 3032 3034 3037 3037 3038 3039 3042 3045 3046 3049 3051 3053 3055 3057 3058 3059 3060 3061 3063 3065 3067 3069 3072 3073 3074 3075 3076 3075 3074 3073 3071 3070 3070
2986 2991 2995 2998 3002 3009 3014 3018 3021 3024 3027 3029 3033 3035 3037 3039 3039 3041 3043 3044 3046 3048 3050 3053 3055 3057 3058 3059 3060 3062 3062 3063 3065 3066 3068 3070 3071 3071 3071 3070 3068 3067 3065 3065 3063